| time (UTC) | temp C | wind direction | speed KPH | gust KPH | rain 1hr cm | rain 24hr cm | rain mn cm | humidity % | barometer mb |
| 20260904145521 | 16 | 240 | 3.2 | 4.8 | 0.00 | 3.20 | 0.00 | 99 | 1010.3 |
| 20260904145021 | 17 | 255 | 0.0 | 4.8 | 0.00 | 3.20 | 0.00 | 99 | 1010.3 |
| 20260904144520 | 17 | 291 | 0.0 | 3.2 | 0.00 | 3.20 | 0.00 | 99 | 1010.0 |
| 20260904144019 | 17 | 270 | 0.0 | 3.2 | 0.00 | 3.20 | 0.00 | 99 | 1010.3 |
| 20260904143521 | 16 | 188 | 0.0 | 3.2 | 0.00 | 3.20 | 0.00 | 99 | 1010.3 |
| 20260904143019 | 16 | 249 | 0.0 | 3.2 | 0.00 | 3.20 | 0.00 | 99 | 1010.7 |
| 20260904142519 | 16 | 270 | 0.0 | 3.2 | 0.00 | 3.20 | 0.00 | 99 | 1010.3 |
| 20260904142018 | 17 | 7 | 0.0 | 3.2 | 0.00 | 3.20 | 0.00 | 99 | 1010.0 |
| 20260904141519 | 17 | 270 | 1.6 | 3.2 | 0.00 | 3.20 | 0.00 | 99 | 1009.7 |
| 20260904141017 | 17 | 353 | 0.0 | 3.2 | 0.00 | 3.20 | 0.00 | 99 | 1009.7 |
| 20260904140518 | 16 | 290 | 3.2 | 3.2 | 0.00 | 3.20 | 0.00 | 99 | 1009.7 |
| 20260904140017 | 17 | 300 | 0.0 | 3.2 | 0.00 | 3.20 | 0.00 | 99 | 1009.7 |
| 20260904135518 | 17 | 262 | 0.0 | 3.2 | 0.00 | 3.20 | 0.00 | 99 | 1009.7 |
| 20260904135017 | 16 | 297 | 0.0 | 3.2 | 0.00 | 3.20 | 0.00 | 99 | 1009.7 |
| 20260904134518 | 16 | 270 | 0.0 | 4.8 | 0.00 | 3.20 | 0.00 | 99 | 1009.7 |
| 20260904134015 | 16 | 294 | 0.0 | 4.8 | 0.00 | 3.20 | 0.00 | 99 | 1009.7 |
| 20260904133517 | 16 | 279 | 0.0 | 3.2 | 0.00 | 3.20 | 0.00 | 99 | 1009.7 |
| 20260904133015 | 16 | 294 | 0.0 | 3.2 | 0.00 | 3.20 | 0.00 | 99 | 1009.7 |
| 20260904132516 | 16 | 300 | 0.0 | 3.2 | 0.00 | 3.20 | 0.00 | 99 | 1009.3 |
| 20260904132015 | 16 | 337 | 1.6 | 1.6 | 0.00 | 3.20 | 0.00 | 99 | 1009.7 |
| 20260904131515 | 16 | 337 | 0.0 | 3.2 | 0.00 | 3.20 | 0.00 | 99 | 1009.7 |
| 20260904130514 | 16 | 261 | 0.0 | 1.6 | 0.00 | 3.20 | 0.00 | 99 | 1009.3 |
| 20260904130013 | 16 | 331 | 0.0 | 1.6 | 0.00 | 3.20 | 0.00 | 99 | 1009.3 |
| 20260904125515 | 16 | 261 | 0.0 | 3.2 | 0.00 | 3.20 | 0.00 | 99 | 1009.0 |
| 20260904125012 | 16 | 0 | 0.0 | 3.2 | 0.00 | 3.20 | 0.00 | 99 | 1009.3 |
| 20260904124513 | 16 | 270 | 3.2 | 3.2 | 0.00 | 3.20 | 0.00 | 99 | 1009.3 |
| 20260904124012 | 16 | 346 | 0.0 | 3.2 | 0.00 | 3.20 | 0.00 | 99 | 1009.3 |
| 20260904123513 | 16 | 270 | 0.0 | 3.2 | 0.00 | 3.20 | 0.00 | 99 | 1009.3 |
| 20260904123011 | 16 | 270 | 0.0 | 0.0 | 0.00 | 3.20 | 0.00 | 99 | 1009.3 |
| 20260904122513 | 16 | 270 | 0.0 | 3.2 | 0.00 | 3.20 | 0.00 | 99 | 1009.3 |
| 20260904122011 | 16 | 270 | 1.6 | 3.2 | 0.00 | 3.20 | 0.00 | 99 | 1009.3 |
| 20260904121512 | 16 | 352 | 0.0 | 1.6 | 0.00 | 3.20 | 0.00 | 99 | 1009.0 |
| 20260904121010 | 16 | 0 | 0.0 | 3.2 | 0.00 | 3.20 | 0.00 | 99 | 1009.0 |
| 20260904120511 | 16 | 0 | 0.0 | 3.2 | 0.00 | 3.20 | 0.00 | 99 | 1009.0 |
| 20260904120010 | 16 | 352 | 0.0 | 0.0 | 0.00 | 3.20 | 0.00 | 99 | 1009.0 |
| 20260904115510 | 16 | 352 | 0.0 | 0.0 | 0.00 | 3.20 | 0.00 | 99 | 1009.0 |
| 20260904114510 | 16 | 352 | 0.0 | 0.0 | 0.00 | 3.20 | 0.00 | 99 | 1009.0 |
| 20260904114008 | 16 | 352 | 0.0 | 0.0 | 0.00 | 3.20 | 0.00 | 99 | 1008.5 |
| 20260904113509 | 16 | 352 | 0.0 | 0.0 | 0.00 | 3.20 | 0.00 | 99 | 1008.5 |
| 20260904113008 | 16 | 352 | 0.0 | 0.0 | 0.00 | 3.20 | 0.00 | 99 | 1009.0 |
| 20260904112509 | 16 | 352 | 0.0 | 0.0 | 0.00 | 3.20 | 0.00 | 99 | 1008.5 |
| 20260904112007 | 16 | 352 | 0.0 | 0.0 | 0.00 | 3.20 | 0.00 | 99 | 1008.5 |
| 20260904111508 | 16 | 352 | 0.0 | 0.0 | 0.00 | 3.20 | 0.00 | 99 | 1008.2 |
| 20260904111007 | 16 | 352 | 0.0 | 1.6 | 0.00 | 3.20 | 0.00 | 99 | 1008.2 |
| 20260904105007 | 16 | 270 | 0.0 | 3.2 | 0.00 | 3.20 | 0.00 | 99 | 1008.5 |
| 20260904104505 | 16 | 331 | 0.0 | 3.2 | 0.00 | 3.20 | 0.00 | 99 | 1008.2 |
| 20260904104005 | 16 | 297 | 0.0 | 1.6 | 0.00 | 3.20 | 0.00 | 99 | 1008.2 |
| 20260904103506 | 16 | 0 | 0.0 | 0.0 | 0.00 | 3.20 | 0.00 | 99 | 1007.9 |
| 20260904103005 | 16 | 0 | 0.0 | 0.0 | 0.00 | 3.20 | 0.00 | 99 | 1008.2 |
| 20260904102502 | 16 | 0 | 0.0 | 0.0 | 0.00 | 3.20 | 0.00 | 99 | 1008.2 |
| 20260904101502 | 16 | 0 | 0.0 | 0.0 | 0.00 | 3.20 | 0.00 | 99 | 1008.2 |
| 20260904101001 | 16 | 0 | 0.0 | 0.0 | 0.00 | 3.20 | 0.00 | 99 | 1008.2 |
| 20260904100502 | 16 | 0 | 0.0 | 0.0 | 0.00 | 3.20 | 0.00 | 99 | 1008.2 |
| 20260904100001 | 16 | 0 | 0.0 | 0.0 | 0.00 | 3.20 | 0.00 | 99 | 1007.9 |
| 20260904095503 | 16 | 0 | 0.0 | 0.0 | 0.00 | 3.20 | 0.00 | 99 | 1007.9 |
| 20260904095001 | 16 | 0 | 0.0 | 0.0 | 0.00 | 3.20 | 0.00 | 99 | 1008.2 |
| 20260904094503 | 16 | 0 | 0.0 | 0.0 | 0.00 | 3.20 | 0.00 | 99 | 1008.2 |
| 20260904094000 | 16 | 0 | 0.0 | 1.6 | 0.00 | 3.20 | 0.00 | 99 | 1007.9 |
| 20260904092502 | 16 | 352 | 0.0 | 0.0 | 0.00 | 3.20 | 0.00 | 99 | 1007.9 |
| 20260904092000 | 16 | 352 | 0.0 | 0.0 | 0.00 | 3.20 | 0.00 | 99 | 1007.9 |
| 20260904091502 | 16 | 352 | 0.0 | 0.0 | 0.00 | 3.20 | 0.00 | 99 | 1007.5 |
| 20260904091000 | 16 | 352 | 0.0 | 0.0 | 0.00 | 3.20 | 0.00 | 99 | 1007.5 |
| 20260904090459 | 16 | 352 | 0.0 | 3.2 | 0.00 | 3.20 | 0.00 | 99 | 1007.5 |
| 20260904084958 | 16 | 215 | 0.0 | 0.0 | 0.00 | 3.20 | 0.00 | 99 | 1007.5 |
| 20260904084459 | 16 | 215 | 0.0 | 1.6 | 0.00 | 3.20 | 0.00 | 99 | 1007.5 |
| 20260904083457 | 16 | 353 | 0.0 | 1.6 | 0.00 | 3.20 | 0.00 | 99 | 1007.5 |
| 20260904082457 | 16 | 348 | 0.0 | 0.0 | 0.00 | 3.20 | 0.00 | 99 | 1007.2 |
| 20260904081957 | 16 | 348 | 0.0 | 0.0 | 0.00 | 3.20 | 0.00 | 99 | 1006.9 |
| 20260904081456 | 16 | 348 | 0.0 | 0.0 | 0.00 | 3.20 | 0.00 | 99 | 1006.9 |
| 20260904080957 | 16 | 348 | 0.0 | 1.6 | 0.00 | 3.20 | 0.00 | 99 | 1006.9 |
| 20260904080456 | 16 | 348 | 0.0 | 3.2 | 0.00 | 3.20 | 0.00 | 99 | 1006.9 |
| 20260904074955 | 16 | 286 | 0.0 | 0.0 | 0.00 | 3.20 | 0.00 | 99 | 1006.9 |
| 20260904074456 | 16 | 286 | 0.0 | 3.2 | 0.00 | 3.20 | 0.00 | 99 | 1006.9 |
| 20260904073955 | 16 | 286 | 0.0 | 3.2 | 0.00 | 3.20 | 0.00 | 99 | 1006.9 |
| 20260904073454 | 16 | 337 | 0.0 | 3.2 | 0.00 | 3.20 | 0.00 | 99 | 1006.9 |
| 20260904072953 | 16 | 254 | 0.0 | 3.2 | 0.00 | 3.20 | 0.00 | 99 | 1006.9 |
| 20260904071953 | 16 | 246 | 0.0 | 3.2 | 0.00 | 3.20 | 0.00 | 99 | 1006.9 |
| 20260904071454 | 16 | 286 | 0.0 | 3.2 | 0.00 | 3.20 | 0.00 | 99 | 1006.9 |
| 20260904070952 | 16 | 254 | 0.0 | 3.2 | 0.00 | 3.20 | 0.00 | 99 | 1006.9 |
| 20260904070454 | 16 | 254 | 0.0 | 3.2 | 0.00 | 3.20 | 0.00 | 99 | 1006.9 |
| 20260904065952 | 16 | 353 | 0.0 | 4.8 | 0.00 | 3.20 | 0.00 | 99 | 1007.2 |
| 20260904065453 | 16 | 300 | 3.2 | 4.8 | 0.00 | 3.20 | 0.00 | 99 | 1006.9 |
| 20260904064951 | 16 | 327 | 0.0 | 3.2 | 0.00 | 3.20 | 0.00 | 99 | 1006.9 |
| 20260904064452 | 16 | 294 | 0.0 | 3.2 | 0.00 | 3.20 | 0.00 | 99 | 1006.9 |
| 20260904062450 | 16 | 345 | 0.0 | 6.4 | 0.00 | 3.20 | 0.00 | 99 | 1006.9 |
| 20260904061950 | 16 | 279 | 0.0 | 6.4 | 0.00 | 3.20 | 0.00 | 99 | 1006.9 |
| 20260904061451 | 16 | 355 | 0.0 | 4.8 | 0.00 | 3.20 | 0.00 | 99 | 1007.2 |
| 20260904060949 | 16 | 348 | 4.8 | 6.4 | 0.00 | 3.20 | 0.00 | 99 | 1006.9 |
| 20260904055948 | 16 | 8 | 0.0 | 4.8 | 0.00 | 3.20 | 0.00 | 99 | 1007.2 |
| 20260904055449 | 16 | 332 | 0.0 | 4.8 | 0.00 | 3.20 | 0.00 | 99 | 1006.9 |
| 20260904054948 | 16 | 325 | 0.0 | 4.8 | 0.00 | 3.20 | 0.00 | 99 | 1007.2 |
| 20260904054448 | 16 | 279 | 0.0 | 4.8 | 0.00 | 3.20 | 0.00 | 99 | 1006.9 |
| 20260904053948 | 16 | 320 | 3.2 | 4.8 | 0.00 | 3.20 | 0.00 | 99 | 1007.2 |
| 20260904053448 | 16 | 229 | 0.0 | 4.8 | 0.00 | 3.20 | 0.00 | 99 | 1007.2 |
| 20260904052947 | 16 | 255 | 0.0 | 4.8 | 0.00 | 3.20 | 0.00 | 99 | 1006.9 |
| 20260904052448 | 16 | 261 | 0.0 | 4.8 | 0.00 | 3.20 | 0.00 | 99 | 1006.9 |
| 20260904051946 | 16 | 282 | 3.2 | 6.4 | 0.00 | 3.20 | 0.00 | 99 | 1006.9 |
| 20260904051447 | 16 | 282 | 0.0 | 6.4 | 0.00 | 3.20 | 0.00 | 99 | 1006.9 |
| 20260904050945 | 16 | 331 | 1.6 | 6.4 | 0.03 | 3.20 | 0.00 | 99 | 1006.9 |
| 20260904050445 | 16 | 283 | 1.6 | 8.0 | 0.03 | 3.20 | 0.00 | 99 | 1006.5 |
| 20260904045945 | 16 | 303 | 3.2 | 8.0 | 0.03 | 3.20 | 3.20 | 99 | 1006.9 |
| 20260904045444 | 16 | 311 | 3.2 | 6.4 | 0.03 | 3.20 | 3.20 | 99 | 1006.9 |
| 20260904044944 | 17 | 323 | 3.2 | 6.4 | 0.03 | 3.20 | 3.20 | 99 | 1006.9 |
| 20260904044443 | 17 | 303 | 4.8 | 6.4 | 0.03 | 3.20 | 3.20 | 99 | 1006.9 |
| 20260904043944 | 17 | 295 | 6.4 | 6.4 | 0.03 | 3.20 | 3.20 | 99 | 1007.2 |
| 20260904043444 | 17 | 270 | 1.6 | 4.8 | 0.03 | 3.20 | 3.20 | 99 | 1007.5 |
| 20260904042943 | 17 | 254 | 1.6 | 3.2 | 0.03 | 3.20 | 3.20 | 99 | 1007.5 |
| 20260904042444 | 17 | 311 | 3.2 | 3.2 | 0.03 | 3.20 | 3.20 | 99 | 1007.5 |
| 20260904041942 | 16 | 0 | 0.0 | 0.0 | 0.08 | 3.20 | 3.20 | 99 | 1007.5 |
| 20260904041444 | 16 | 0 | 0.0 | 0.0 | 0.20 | 3.20 | 3.20 | 99 | 1007.9 |
| 20260904040941 | 16 | 0 | 0.0 | 1.6 | 0.41 | 3.17 | 3.17 | 99 | 1007.9 |
| 20260904040443 | 16 | 0 | 0.0 | 3.2 | 0.94 | 3.17 | 3.17 | 99 | 1007.5 |
| 20260904035941 | 16 | 337 | 0.0 | 3.2 | 1.14 | 3.17 | 3.17 | 99 | 1007.2 |
| 20260904035443 | 17 | 254 | 0.0 | 4.8 | 1.19 | 3.17 | 3.17 | 99 | 1007.2 |
| 20260904034940 | 17 | 294 | 0.0 | 4.8 | 1.19 | 3.17 | 3.17 | 99 | 1007.2 |
| 20260904034442 | 17 | 286 | 1.6 | 4.8 | 1.19 | 3.17 | 3.17 | 99 | 1007.2 |
| 20260904033940 | 17 | 297 | 0.0 | 8.0 | 1.19 | 3.17 | 3.17 | 99 | 1006.9 |
| 20260904033441 | 17 | 270 | 0.0 | 8.0 | 1.19 | 3.17 | 3.17 | 99 | 1006.9 |
| 20260904032939 | 17 | 264 | 1.6 | 9.7 | 1.19 | 3.17 | 3.17 | 99 | 1007.2 |
| 20260904032441 | 17 | 270 | 3.2 | 9.7 | 1.19 | 3.17 | 3.17 | 99 | 1006.9 |
| 20260904031938 | 17 | 298 | 4.8 | 9.7 | 1.12 | 3.10 | 3.10 | 99 | 1007.2 |
| 20260904031438 | 17 | 301 | 3.2 | 6.4 | 0.99 | 2.97 | 2.95 | 99 | 1007.9 |
| 20260904030440 | 17 | 229 | 0.0 | 6.4 | 0.25 | 2.24 | 2.21 | 99 | 1008.5 |
| 20260904025937 | 17 | 353 | 0.0 | 4.8 | 0.05 | 2.03 | 2.01 | 99 | 1008.5 |
| 20260904025437 | 18 | 194 | 0.0 | 4.8 | 0.00 | 1.98 | 1.98 | 99 | 1008.5 |
| 20260904024937 | 18 | 180 | 1.6 | 9.7 | 0.00 | 1.98 | 1.98 | 99 | 1007.2 |
| 20260904024438 | 18 | 235 | 3.2 | 9.7 | 0.00 | 1.98 | 1.98 | 99 | 1006.1 |
| 20260904023438 | 17 | 319 | 3.2 | 9.7 | 0.00 | 1.98 | 1.98 | 99 | 1005.7 |
| 20260904022936 | 17 | 337 | 3.2 | 9.7 | 0.00 | 1.98 | 1.98 | 99 | 1005.7 |
| 20260904022437 | 17 | 285 | 8.0 | 8.0 | 0.00 | 1.98 | 1.98 | 99 | 1005.7 |
| 20260904021935 | 17 | 295 | 6.4 | 9.7 | 0.00 | 1.98 | 1.98 | 99 | 1005.4 |
| 20260904021435 | 17 | 268 | 8.0 | 9.7 | 0.00 | 1.98 | 1.98 | 99 | 1005.4 |
| 20260904020435 | 17 | 270 | 3.2 | 8.0 | 0.00 | 1.98 | 1.98 | 99 | 1005.4 |
| 20260904015934 | 17 | 247 | 3.2 | 8.0 | 0.00 | 1.98 | 1.98 | 99 | 1005.4 |
| 20260904015435 | 17 | 355 | 3.2 | 11.3 | 0.00 | 1.98 | 1.98 | 99 | 1005.4 |
| 20260904014431 | 17 | 305 | 3.2 | 9.7 | 0.00 | 1.98 | 1.98 | 99 | 1005.1 |
| 20260904013929 | 17 | 285 | 0.0 | 9.7 | 0.00 | 1.98 | 1.98 | 99 | 1005.1 |
| 20260904013431 | 17 | 257 | 3.2 | 9.7 | 0.00 | 1.98 | 1.98 | 99 | 1005.4 |
| 20260904012929 | 17 | 252 | 3.2 | 9.7 | 0.00 | 1.98 | 1.98 | 99 | 1005.4 |
| 20260904012430 | 17 | 243 | 3.2 | 11.3 | 0.00 | 1.98 | 1.98 | 99 | 1005.4 |
| 20260904011930 | 17 | 277 | 6.4 | 11.3 | 0.00 | 1.98 | 1.98 | 99 | 1005.7 |
| 20260904011429 | 17 | 273 | 4.8 | 9.7 | 0.00 | 1.98 | 1.98 | 99 | 1005.7 |
| 20260904010929 | 17 | 270 | 1.6 | 9.7 | 0.00 | 1.98 | 1.98 | 99 | 1005.7 |
| 20260904010429 | 17 | 289 | 1.6 | 6.4 | 0.00 | 1.98 | 1.98 | 99 | 1005.7 |
| 20260904005929 | 17 | 281 | 3.2 | 4.8 | 0.00 | 1.98 | 1.98 | 99 | 1005.7 |
| 20260904005430 | 17 | 297 | 1.6 | 4.8 | 0.00 | 1.98 | 1.98 | 99 | 1005.7 |
| 20260904004929 | 17 | 331 | 0.0 | 9.7 | 0.00 | 1.98 | 1.98 | 99 | 1005.7 |
| 20260904004431 | 17 | 139 | 3.2 | 9.7 | 0.00 | 1.98 | 1.98 | 99 | 1005.4 |
| 20260904003929 | 17 | 268 | 8.0 | 9.7 | 0.00 | 1.98 | 1.98 | 99 | 1005.1 |
| 20260904003430 | 17 | 299 | 3.2 | 6.4 | 0.00 | 1.98 | 1.98 | 99 | 1005.1 |
| 20260904002929 | 17 | 335 | 4.8 | 6.4 | 0.00 | 1.98 | 1.98 | 99 | 1005.7 |
| 20260904002429 | 17 | 289 | 1.6 | 4.8 | 0.00 | 1.98 | 1.98 | 99 | 1006.1 |
| 20260904001928 | 17 | 229 | 0.0 | 4.8 | 0.00 | 1.98 | 1.98 | 99 | 1005.7 |
| 20260904001429 | 17 | 285 | 1.6 | 3.2 | 0.00 | 1.98 | 1.98 | 99 | 1006.1 |
| 20260904000928 | 18 | 281 | 3.2 | 3.2 | 0.00 | 1.98 | 1.98 | 99 | 1005.7 |
| 20260904000427 | 18 | 331 | 3.2 | 3.2 | 0.00 | 1.98 | 1.98 | 99 | 1005.7 |
| 20260903235926 | 18 | 249 | 0.0 | 4.8 | 0.00 | 1.98 | 1.98 | 99 | 1005.7 |
| 20260903235428 | 18 | 246 | 0.0 | 4.8 | 0.00 | 1.98 | 1.98 | 99 | 1005.7 |
| 20260903234927 | 18 | 334 | 1.6 | 3.2 | 0.00 | 1.98 | 1.98 | 99 | 1005.7 |
| 20260903234431 | 18 | 77 | 0.0 | 4.8 | 0.03 | 1.98 | 1.98 | 99 | 1005.7 |
| 20260903233926 | 18 | 270 | 1.6 | 4.8 | 0.03 | 1.98 | 1.98 | 99 | 1005.7 |
| 20260903233425 | 18 | 337 | 0.0 | 3.2 | 0.03 | 1.98 | 1.98 | 99 | 1006.1 |
| 20260903232925 | 18 | 0 | 0.0 | 3.2 | 0.03 | 1.98 | 1.98 | 99 | 1006.1 |
| 20260903232426 | 18 | 63 | 0.0 | 6.4 | 0.05 | 1.98 | 1.98 | 99 | 1006.5 |
| 20260903231924 | 18 | 180 | 0.0 | 6.4 | 0.13 | 1.98 | 1.98 | 99 | 1005.4 |
| 20260903231426 | 18 | 295 | 3.2 | 3.2 | 0.33 | 1.98 | 1.98 | 99 | 1005.1 |
| 20260903230923 | 18 | 99 | 0.0 | 4.8 | 0.33 | 1.98 | 1.98 | 99 | 1006.1 |
| 20260903230425 | 18 | 90 | 1.6 | 8.0 | 0.33 | 1.98 | 1.98 | 99 | 1005.7 |
| 20260903225923 | 18 | 270 | 0.0 | 8.0 | 0.36 | 1.98 | 1.98 | 99 | 1005.1 |
| 20260903225425 | 18 | 243 | 0.0 | 9.7 | 0.48 | 1.98 | 1.98 | 99 | 1004.7 |
| 20260903224923 | 18 | 227 | 0.0 | 9.7 | 0.76 | 1.98 | 1.96 | 99 | 1005.1 |
| 20260903224423 | 18 | 267 | 0.0 | 8.0 | 1.63 | 1.96 | 1.96 | 99 | 1004.4 |
| 20260903223922 | 18 | 69 | 4.8 | 8.0 | 1.96 | 1.96 | 1.96 | 99 | 1004.0 |
| 20260903223421 | 18 | 265 | 3.2 | 12.9 | 1.96 | 1.96 | 1.96 | 99 | 1004.0 |
| 20260903222922 | 18 | 23 | 0.0 | 12.9 | 1.96 | 1.96 | 1.96 | 99 | 1004.4 |
| 20260903222423 | 18 | 276 | 1.6 | 9.7 | 1.93 | 1.93 | 1.93 | 99 | 1004.0 |
| 20260903221921 | 18 | 345 | 3.2 | 9.7 | 1.80 | 1.80 | 1.78 | 99 | 1005.1 |
| 20260903221422 | 18 | 180 | 0.0 | 8.0 | 1.65 | 1.65 | 1.65 | 99 | 1006.9 |
| 20260903220420 | 18 | 98 | 1.6 | 6.4 | 1.65 | 1.65 | 1.65 | 99 | 1006.9 |
| 20260903215919 | 18 | 130 | 3.2 | 11.3 | 1.63 | 1.63 | 1.60 | 99 | 1006.9 |
| 20260903215421 | 18 | 14 | 0.0 | 12.9 | 1.50 | 1.50 | 1.47 | 98 | 1006.9 |
| 20260903214919 | 18 | 23 | 3.2 | 12.9 | 1.22 | 1.22 | 0.89 | 97 | 1007.2 |
| 20260903214420 | 18 | 159 | 3.2 | 17.7 | 0.33 | 0.33 | 0.15 | 93 | 1007.2 |
| 20260903213918 | 22 | 188 | 0.0 | 17.7 | 0.00 | 0.00 | 0.00 | 82 | 1007.2 |
| 20260903213403 | 24 | 143 | 3.2 | 6.4 | 0.00 | 0.00 | 0.00 | 74 | 1006.5 |
| 20260903212901 | 24 | 90 | 0.0 | 8.0 | 0.00 | 0.00 | 0.00 | 75 | 1004.7 |
| 20260903212403 | 25 | 106 | 0.0 | 16.1 | 0.00 | 0.00 | 0.00 | 73 | 1004.0 |
| 20260903211900 | 25 | 270 | 3.2 | 16.1 | 0.00 | 0.00 | 0.00 | 72 | 1003.6 |
| 20260903211403 | 25 | 246 | 8.0 | 16.1 | 0.00 | 0.00 | 0.00 | 70 | 1004.0 |
| 20260903205901 | 25 | 338 | 4.8 | 14.5 | 0.00 | 0.00 | 0.00 | 71 | 1004.0 |
| 20260903205401 | 25 | 304 | 6.4 | 14.5 | 0.00 | 0.00 | 0.00 | 69 | 1004.4 |
| 20260903204901 | 25 | 270 | 3.2 | 14.5 | 0.00 | 0.00 | 0.00 | 69 | 1004.7 |
| 20260903204401 | 26 | 322 | 8.0 | 17.7 | 0.00 | 0.00 | 0.00 | 68 | 1004.4 |
| 20260903203901 | 26 | 270 | 3.2 | 17.7 | 0.00 | 0.00 | 0.00 | 68 | 1004.4 |
| 20260903203401 | 26 | 233 | 3.2 | 17.7 | 0.00 | 0.00 | 0.00 | 69 | 1004.0 |
| 20260903202902 | 26 | 266 | 3.2 | 17.7 | 0.00 | 0.00 | 0.00 | 67 | 1004.4 |
| 20260903202401 | 26 | 294 | 8.0 | 11.3 | 0.00 | 0.00 | 0.00 | 67 | 1004.4 |
| 20260903201902 | 26 | 243 | 3.2 | 12.9 | 0.00 | 0.00 | 0.00 | 65 | 1004.7 |
| 20260903201400 | 27 | 278 | 0.0 | 14.5 | 0.00 | 0.00 | 0.00 | 66 | 1004.4 |
| 20260903200901 | 26 | 247 | 6.4 | 14.5 | 0.00 | 0.00 | 0.00 | 67 | 1005.1 |
| 20260903200403 | 26 | 241 | 4.8 | 8.0 | 0.00 | 0.00 | 0.00 | 66 | 1004.7 |
| 20260903195901 | 26 | 334 | 6.4 | 8.0 | 0.00 | 0.00 | 0.00 | 66 | 1005.1 |
| 20260903195400 | 26 | 248 | 3.2 | 9.7 | 0.00 | 0.00 | 0.00 | 66 | 1005.1 |
| 20260903194901 | 26 | 255 | 3.2 | 12.9 | 0.00 | 0.00 | 0.00 | 67 | 1005.1 |
| 20260903193901 | 26 | 288 | 6.4 | 14.5 | 0.00 | 0.00 | 0.00 | 66 | 1005.4 |
| 20260903193401 | 27 | 275 | 6.4 | 14.5 | 0.00 | 0.00 | 0.00 | 65 | 1005.1 |
| 20260903192901 | 27 | 313 | 4.8 | 14.5 | 0.00 | 0.00 | 0.00 | 66 | 1005.1 |
| 20260903191902 | 27 | 315 | 3.2 | 11.3 | 0.00 | 0.00 | 0.00 | 66 | 1005.4 |
| 20260903191400 | 26 | 289 | 3.2 | 11.3 | 0.00 | 0.00 | 0.00 | 66 | 1005.4 |
| 20260903190901 | 26 | 286 | 4.8 | 9.7 | 0.00 | 0.00 | 0.00 | 67 | 1005.7 |
| 20260903190402 | 26 | 0 | 3.2 | 11.3 | 0.00 | 0.00 | 0.00 | 67 | 1005.7 |
| 20260903185901 | 26 | 205 | 4.8 | 11.3 | 0.00 | 0.00 | 0.00 | 67 | 1006.1 |
| 20260903185402 | 26 | 267 | 4.8 | 8.0 | 0.00 | 0.00 | 0.00 | 68 | 1006.1 |
| 20260903184900 | 26 | 270 | 3.2 | 12.9 | 0.00 | 0.00 | 0.00 | 67 | 1005.7 |
| 20260903183901 | 26 | 313 | 4.8 | 12.9 | 0.00 | 0.00 | 0.00 | 65 | 1005.7 |
| 20260903183402 | 26 | 297 | 3.2 | 12.9 | 0.00 | 0.00 | 0.00 | 66 | 1006.1 |
| 20260903182901 | 26 | 165 | 0.0 | 14.5 | 0.00 | 0.00 | 0.00 | 67 | 1006.1 |
| 20260903182402 | 26 | 222 | 4.8 | 16.1 | 0.00 | 0.00 | 0.00 | 66 | 1005.7 |
| 20260903181901 | 26 | 223 | 6.4 | 16.1 | 0.00 | 0.00 | 0.00 | 65 | 1005.7 |
| 20260903181402 | 26 | 222 | 4.8 | 11.3 | 0.00 | 0.00 | 0.00 | 65 | 1005.7 |
| 20260903180901 | 26 | 243 | 3.2 | 12.9 | 0.00 | 0.00 | 0.00 | 66 | 1005.4 |
| 20260903180402 | 26 | 276 | 8.0 | 12.9 | 0.00 | 0.00 | 0.00 | 66 | 1005.4 |
| 20260903175901 | 26 | 283 | 6.4 | 16.1 | 0.00 | 0.00 | 0.00 | 64 | 1005.7 |
| 20260903175402 | 25 | 315 | 4.8 | 16.1 | 0.00 | 0.00 | 0.00 | 66 | 1005.4 |
| 20260903174900 | 25 | 285 | 3.2 | 11.3 | 0.00 | 0.00 | 0.00 | 65 | 1005.4 |
| 20260903174403 | 26 | 281 | 3.2 | 14.5 | 0.00 | 0.00 | 0.00 | 65 | 1005.7 |
| 20260903173902 | 26 | 277 | 1.6 | 14.5 | 0.00 | 0.00 | 0.00 | 66 | 1005.7 |
| 20260903173402 | 25 | 305 | 6.4 | 17.7 | 0.00 | 0.00 | 0.00 | 65 | 1005.7 |
| 20260903172901 | 25 | 349 | 6.4 | 17.7 | 0.00 | 0.00 | 0.00 | 64 | 1005.7 |
| 20260903172402 | 25 | 334 | 3.2 | 9.7 | 0.00 | 0.00 | 0.00 | 66 | 1005.7 |
| 20260903171901 | 25 | 243 | 3.2 | 9.7 | 0.00 | 0.00 | 0.00 | 66 | 1005.7 |
| 20260903170403 | 25 | 283 | 9.7 | 14.5 | 0.00 | 0.00 | 0.00 | 64 | 1006.1 |
| 20260903165901 | 25 | 288 | 6.4 | 14.5 | 0.00 | 0.00 | 0.00 | 64 | 1006.1 |
| 20260903165402 | 24 | 326 | 0.0 | 17.7 | 0.00 | 0.00 | 0.00 | 64 | 1006.1 |
| 20260903164900 | 24 | 266 | 3.2 | 17.7 | 0.00 | 0.00 | 0.00 | 66 | 1006.1 |
| 20260903164403 | 24 | 282 | 8.0 | 14.5 | 0.00 | 0.00 | 0.00 | 64 | 1006.1 |
| 20260903162402 | 23 | 282 | 6.4 | 19.3 | 0.00 | 0.00 | 0.00 | 66 | 1006.9 |
| 20260903161859 | 23 | 270 | 1.6 | 14.5 | 0.00 | 0.00 | 0.00 | 66 | 1006.9 |
| 20260903161400 | 23 | 277 | 11.3 | 11.3 | 0.00 | 0.00 | 0.00 | 66 | 1006.9 |
| 20260903160858 | 23 | 186 | 0.0 | 9.7 | 0.00 | 0.00 | 0.00 | 67 | 1006.9 |
| 20260903160400 | 23 | 270 | 3.2 | 12.9 | 0.00 | 0.00 | 0.00 | 66 | 1006.9 |
| 20260903155858 | 23 | 322 | 4.8 | 12.9 | 0.00 | 0.00 | 0.00 | 68 | 1007.2 |
| 20260903155359 | 23 | 231 | 4.8 | 12.9 | 0.00 | 0.00 | 0.00 | 68 | 1006.9 |
| 20260903154359 | 22 | 270 | 3.2 | 9.7 | 0.00 | 0.00 | 0.00 | 68 | 1007.2 |
| 20260903153857 | 22 | 345 | 3.2 | 12.9 | 0.00 | 0.00 | 0.00 | 69 | 1006.9 |
| 20260903152358 | 22 | 329 | 6.4 | 14.5 | 0.00 | 0.00 | 0.00 | 68 | 1007.2 |
| 20260903151856 | 22 | 288 | 3.2 | 14.5 | 0.00 | 0.00 | 0.00 | 69 | 1007.2 |
| 20260903151357 | 22 | 270 | 3.2 | 9.7 | 0.00 | 0.00 | 0.00 | 71 | 1007.2 |
| 20260903150855 | 22 | 339 | 3.2 | 19.3 | 0.00 | 0.00 | 0.00 | 71 | 1007.5 |
| 20260903150358 | 22 | 322 | 4.8 | 19.3 | 0.00 | 0.00 | 0.00 | 72 | 1007.5 |
| 20260903145854 | 22 | 270 | 4.8 | 11.3 | 0.00 | 0.00 | 0.00 | 74 | 1007.2 |